SCP
0 0 0 0 0 0 0 0 0 0 0 0 0 0 0 0 0 0 0 0 0 0 0 0 0 0 0 0 0 0 0 0 0 0 0 0 0 0 0 0 0 0 0
0 0 0 0 0 0 0 0 0 0 0 0 0 0 0 0 0 0 0 0 0 0 0 0 0 0 0 0 0 0 0 0 0 0 0 0 0 0 0 0 0 0 0
0 0 0 0 0 0 0 0 0 0 0 0 0 0 0 0 0 0 0 0 0 0 0 0 0 0 0 0 0 0 0 0 0 0 0 0 0 0 0 0 0 0 0
0 0 0 0 0 0 0 0 0 0 0 0 0 0 0 0 0 0 0 0 0 0 0 0 0 0 0 0 0 0 0 0 0 0 0 0 0 0 0 0 0 0 0
0 0 0 0 0 0 0 0 0 0 0 0 0 0 0 0 0 0 0 0 0 0 0 0 0 0 0 0 0 0 0 0 0 0 0 0 0 0 0 0 0 0 0
0 0 0 0 0 0 0 0 0 0 0 0 0 0 0 0 0 0 0 0 0 0 0 0 0 0 0 0 0 0 0 0 0 0 0 0 0 0 0 0 0 0 0
0 0 0 0 0 0 0 0 0 0 0 0 0 0 0 0 0 0 0 0 0 0 0 0 0 0 0 0 0 0 0 0 0 0 0 0 0 0 0 0 0 0 0
0 0 0 0 0 0 0 0 0 0 0 0 0 0 0 0 0 0 0 0 0 0 0 0 0 0 0 0 0 0 0 0 0 0 0 0 0 0 0 0 0 0 0
0 0 0 0 0 0 0 0 0 0 0 0 0 0 0 0 0 0 0 0 0 0 0 0 0 0 0 0 0 0 0 0 0 0 0 0 0 0 0 0 0 0 0
0 0 0 0 0 0 0 0 0 0 0 0 0 0 0 0 0 0 0 0 0 0 0 0 0 0 0 0 0 0 0 0 0 0 0 0 0 0 0 0 0 0 0
0 0 0 0 0 0 0 0 0 0 0 0 0 0 0 0 0 0 0 0 0 0 0 0 0 0 0 0 0 0 0 0 0 0 0 0 0 0 0 0 0 0 0
0 0 0 0 0 0 0 0 0 0 0 0 0 0 0 0 0 0 0 0 0 0 0 0 0 0 0 0 0 0 0 0 0 0 0 0 0 0 0 0 0 0 0
0 0 0 0 0 0 0 0 0 0 0 0 0 0 0 0 0 0 0 0 0 0 0 0 0 0 0 0 0 0 0 0 0 0 0 0 0 0 0 0 0 0 0
0 0 0 0 0 0 0 0 0 0 0 0 0 0 0 0 0 0 0 0 0 0 0 0 0 0 0 0 0 0 0 0 0 0 0 0 0 0 0 0 0 0 0
0 0 0 0 0 0 0 0 0 0 0 0 0 0 0 0 0 0 0 0 0 0 0 0 0 0 0 0 0 0 0 0 0 0 0 0 0 0 0 0 0 0 0
0 0 0 0 0 0 0 0 0 0 0 0 0 0 0 0 0 0 0 0 0 0 0 0 0 0 0 0 0 0 0 0 0 0 0 0 0 0 0 0 0 0 0
0 0 0 0 0 0 0 0 0 0 0 0 0 0 0 0 0 0 0 0 0 0 0 0 0 0 0 0 0 0 0 0 0 0 0 0 0 0 0 0 0 0 0
0 0 0 0 0 0 0 0 0 0 0 0 0 0 0 0 0 0 0 0 0 0 0 0 0 0 0 0 0 0 0 0 0 0 0 0 0 0 0 0 0 0 0
0 0 0 0 0 0 0 0 0 0 0 0 0 0 0 0 0 0 0 0 0 0 0 0 0 0 0 0 0 0 0 0 0 0 0 0 0 0 0 0 0 0 0
0 0 0 0 0 0 0 0 0 0 0 0 0 0 0 0 0 0 0 0 0 0 0 0 0 0 0 0 0 0 0 0 0 0 0 0 0 0 0 0 0 0 0
0 0 0 0 0 0 0 0 0 0 0 0 0 0 0 0 0 0 0 0 0 0 0 0 0 0 0 0 0 0 0 0 0 0 0 0 0 0 0 0 0 0 0
-0 0 0 0 0 0 0 0 0 0 0 0 0 0 0 0 0 0 0 0 0 0 0 0 0 0 0 0 0 0 0 0 0 0 0 0 0 0 0 0 0 0 0
-0 -0 0 0 0 0 0 0 0 0 0 0 0 0 0 0 0 0 0 0 0 0 0 0 0 0 0 0 0 0 0 0 0 0 0 0 0 0 0 0 0 0 0
-0 0 0 0 0 0 0 0 0 0 0 0 0 0 0 0 0 0 -0 0 0 0 0 0 0 0 0 0 0 0 0 0 0 0 0 0 0 0 0 0 0 0 0
0 0 0 0 0 0 0 0 0 0 0 0 0 0 0 0 0 0 0 0 0 0 0 0 0 0 0 0 0 0 0 0 0 0 0 0 0 0 0 0 0 0 0
0 0 0 0 0 0 0 0 0 0 0 0 0 0 0 0 0 0 0 0 0 0 0 0 0 0 0 0 0 0 0 0 0 0 0 0 0 0 0 0 0 0 0
Wind_Speed
1 1 1 1 1 1 0 1 1 1 1 1 0 0 1 1 2 1 2 4 5 6 6 6 5 4 4 4 3 3 4 4 4 4 4 5 5 5 4 4 5 5 5
1 1 1 1 1 1 0 0 1 1 1 1 1 1 1 1 1 1 1 3 5 5 6 6 5 5 4 4 4 4 5 5 5 5 5 5 5 6 5 6 5 6 6
1 1 1 1 1 1 0 0 1 0 1 1 1 1 1 1 1 2 1 1 2 4 5 6 6 5 5 5 5 5 6 6 5 5 5 5 6 6 6 6 6 6 6
1 1 1 1 1 1 0 0 0 0 1 1 2 1 1 1 2 2 1 1 1 2 4 5 6 6 6 6 6 6 7 7 6 6 6 6 6 7 6 6 7 7 7
1 1 1 1 1 1 0 1 0 0 1 1 2 2 1 1 2 1 1 1 1 1 1 4 6 6 6 6 6 6 7 7 6 6 6 6 7 7 7 7 7 7 7
1 1 1 1 1 1 1 1 0 0 0 1 2 2 2 2 1 1 2 1 1 1 1 2 2 4 5 5 6 6 7 7 6 6 6 7 7 7 7 7 7 7 8
1 1 1 1 1 1 1 1 1 0 0 1 1 2 2 1 1 1 1 1 1 1 1 1 1 1 2 5 6 7 7 7 7 6 7 7 7 8 7 8 8 8 9
1 1 2 2 1 1 1 1 1 1 0 1 0 1 2 2 1 1 1 1 1 1 1 2 1 1 2 1 4 6 7 8 7 7 7 8 8 8 8 8 8 9 9
2 2 2 2 2 1 1 2 2 2 1 1 1 1 0 2 2 2 1 1 1 1 1 2 2 2 2 1 2 5 7 8 8 8 8 8 8 9 8 8 8 9 9
2 2 2 2 2 1 2 2 2 2 2 1 1 1 2 2 1 3 2 1 2 2 2 2 2 2 2 1 3 5 7 7 8 8 8 8 9 9 8 8 8 9 8
2 2 2 2 2 1 2 2 1 2 2 2 2 1 1 1 2 2 4 3 2 2 2 2 2 2 2 1 2 4 6 7 8 8 9 8 9 9 9 9 8 8 8
2 2 2 2 2 2 2 2 2 2 2 3 2 2 2 2 2 2 3 4 3 3 2 2 2 1 1 1 3 5 6 7 8 8 8 8 9 8 8 8 8 8 8
2 3 2 2 2 2 2 2 2 3 3 3 3 3 3 3 3 3 3 3 4 3 2 1 1 1 1 1 2 5 5 7 8 8 8 8 8 8 8 8 9 8 8
3 3 2 2 3 2 3 2 2 3 2 3 4 4 3 3 3 3 3 2 3 3 2 2 1 1 1 1 3 5 3 6 8 8 7 7 8 8 8 8 8 9 8
3 3 3 3 3 3 3 2 2 2 3 3 3 3 3 3 3 3 3 3 3 3 3 2 1 1 1 1 3 2 2 6 7 7 6 6 6 7 7 7 7 8 8
3 3 3 3 3 3 3 2 3 3 3 3 3 3 3 3 3 2 3 2 3 3 3 2 2 2 1 2 3 2 3 6 6 6 6 6 6 7 6 6 7 7 8
3 3 4 3 3 3 3 3 3 3 3 3 3 3 3 3 2 2 2 2 2 3 4 3 2 1 1 1 2 2 2 2 2 5 6 6 6 6 7 6 6 7 7
3 3 3 3 3 3 3 3 3 3 3 3 3 2 3 2 2 2 2 2 3 3 3 3 2 1 2 2 1 2 2 2 2 4 6 6 6 6 6 6 6 7 7
3 3 3 3 3 3 3 3 3 3 3 3 2 2 2 1 2 1 2 2 2 2 2 2 2 1 1 1 2 2 2 2 2 3 5 6 6 7 6 6 6 7 7
3 3 3 3 3 3 3 3 3 3 2 2 2 2 2 2 2 1 1 1 1 1 1 1 0 0 1 1 1 2 3 3 3 3 4 5 6 7 7 7 7 6 7
3 3 3 3 3 3 3 3 3 3 2 2 1 1 2 2 2 1 1 1 1 1 1 1 0 1 1 1 1 1 2 3 3 2 3 4 4 3 4 5 6 6 7
2 2 2 3 3 3 4 4 3 2 2 2 1 1 2 1 1 2 2 2 2 1 0 1 0 1 1 1 1 1 2 3 3 2 3 4 3 3 3 2 6 7 7
2 2 2 3 3 4 4 4 3 2 2 2 1 1 1 1 1 0 1 3 3 3 2 1 1 1 1 1 0 1 2 2 3 3 3 3 3 3 3 4 7 7 7
1 2 3 3 3 3 4 4 2 2 2 1 2 2 1 1 1 1 1 1 1 2 2 1 0 1 0 0 1 0 1 2 2 2 2 2 3 3 4 4 6 7 8
2 2 2 1 2 3 4 3 2 2 1 1 1 1 1 1 2 1 2 1 1 2 4 5 5 4 4 3 2 2 1 1 2 2 2 1 2 3 3 3 4 7 8
2 2 1 1 1 2 3 2 1 1 2 1 1 1 2 1 1 2 2 2 0 1 2 3 4 5 4 3 3 1 1 0 1 2 2 2 2 3 3 2 3 4 4
Wind_Direction
279 294 329 343 333 315 300 327 335 336 316 314 316 300 291 291 291 290 301 313 315 310 302 302 294 291 294 306 300 302 305 303 301 303 300 309 313 306 296 296 286 288 297
253 263 296 304 307 309 293 260 277 296 287 284 281 279 273 278 287 285 290 313 320 314 306 302 300 297 295 296 300 300 298 298 300 301 308 309 317 304 303 292 298 290 289
255 247 266 289 295 298 318 2 327 328 320 328 304 291 272 268 279 287 290 298 312 319 315 309 302 300 298 295 295 301 299 296 296 300 305 310 317 310 301 306 296 295 289
248 235 260 283 288 291 327 47 319 348 333 330 311 300 293 282 277 273 277 293 302 316 319 322 315 302 298 298 299 299 299 297 295 296 299 303 317 310 307 305 309 298 293
232 217 253 279 285 283 298 284 7 45 307 322 309 297 295 289 283 283 274 275 279 299 308 329 328 317 306 307 311 313 312 307 304 298 296 300 308 306 303 306 304 306 303
235 212 254 278 286 274 282 250 227 346 270 291 313 313 301 289 284 281 277 284 295 307 327 326 324 324 325 326 318 314 315 312 303 300 293 295 299 299 299 300 302 304 303
247 229 257 261 257 245 254 236 196 131 13 358 2 330 319 290 270 270 276 282 294 302 311 315 317 319 314 315 313 310 311 312 308 300 296 293 293 297 296 299 301 301 297
245 242 236 245 242 238 259 231 194 159 261 346 19 335 331 330 328 291 285 272 284 291 294 303 296 302 304 299 307 311 311 309 306 306 301 298 293 295 294 298 298 299 298
268 253 243 241 238 219 228 237 213 183 206 300 296 197 193 272 311 304 284 277 288 286 282 285 297 298 302 300 293 309 314 311 311 304 303 299 299 298 295 295 296 296 299
277 266 258 248 239 229 230 238 226 213 194 221 279 263 238 221 260 306 301 296 298 287 279 293 296 292 294 300 310 314 313 313 311 308 304 304 304 300 296 295 293 292 298
283 272 263 254 244 241 234 233 231 223 209 207 216 234 248 251 232 240 281 299 304 282 276 270 267 286 298 301 291 308 322 317 312 312 311 307 308 303 299 297 295 296 302
284 272 262 251 247 241 234 231 228 227 225 219 221 221 223 223 223 230 259 284 288 282 274 269 262 267 284 296 302 320 321 319 316 315 316 313 306 307 305 308 305 303 302
271 265 265 256 253 247 239 232 230 233 230 223 224 229 232 234 227 233 245 269 278 279 267 260 251 259 303 307 303 321 316 321 319 317 314 316 315 311 312 314 314 309 306
255 261 257 252 255 251 248 234 235 243 239 234 236 236 239 244 234 229 228 239 277 273 266 258 269 242 282 295 311 324 307 316 318 314 313 318 319 319 317 314 313 311 311
257 251 252 253 252 241 238 231 236 244 243 242 240 238 242 244 240 237 232 224 232 270 280 261 268 263 284 295 314 309 298 305 313 310 317 321 322 320 318 321 321 315 312
250 246 254 255 256 243 231 225 237 240 242 251 246 243 251 251 246 235 228 231 228 241 266 272 266 281 298 309 310 306 290 307 304 315 323 325 331 331 327 327 326 320 317
248 242 243 247 250 239 229 229 238 240 244 261 264 253 259 260 252 243 234 229 229 230 251 275 269 278 260 290 310 304 297 293 305 323 328 333 336 336 328 327 329 330 327
246 240 240 242 248 236 223 225 237 241 242 257 264 258 269 268 253 232 227 237 237 228 225 256 280 282 281 283 306 322 332 331 321 326 333 338 337 337 335 335 337 340 334
246 238 234 238 247 234 224 227 230 238 243 249 249 249 265 252 253 231 227 236 239 241 219 214 255 282 313 352 360 349 349 344 337 345 348 346 346 345 347 345 348 351 346
238 233 232 235 247 237 227 225 227 231 236 244 246 248 251 238 235 224 233 226 232 228 165 164 212 352 13 18 14 357 351 346 337 342 349 348 350 351 353 352 353 357 357
238 233 233 240 247 238 230 223 217 221 227 238 250 267 272 270 275 260 259 239 232 206 162 153 351 5 19 20 349 349 337 333 334 343 349 339 339 341 341 344 353 358 357
249 240 234 238 245 248 249 239 225 210 224 225 240 279 286 277 310 336 337 355 346 322 192 174 255 272 294 336 347 341 334 338 329 346 350 330 336 329 327 329 345 352 354
256 246 247 244 245 254 254 255 238 211 213 220 220 245 283 289 318 287 355 15 7 350 331 222 198 235 246 242 218 316 316 322 299 303 333 316 330 322 322 329 341 345 352
271 257 255 248 245 253 258 258 250 196 190 211 218 216 240 256 221 169 120 60 358 341 343 7 222 236 232 158 165 203 277 342 330 325 335 311 320 315 317 321 341 349 353
289 282 264 252 253 265 269 249 226 183 185 213 232 227 221 220 209 148 130 108 9 14 22 29 25 28 31 35 53 87 71 27 342 325 340 332 314 320 310 314 338 355 356
280 285 293 301 282 277 293 282 219 196 194 205 215 235 255 245 183 140 143 145 154 25 41 34 30 26 25 28 29 55 161 126 343 310 322 339 320 337 327 314 324 337 347